Powrót do katalogu

SL-8 DEB

AktywnyLEO
NORAD 21724·DEBRIS·🇷🇺 Russia

Wystrzelony Feb 12, 1991 z Plesetsk Cosmodrome

Loading…

Następne Przeloty (najbliższe 24 godziny)

TLE

ŚwieżeSource: Space-Track

Epoka: Sep 14, 2026, 05:46 UTC

1 21724U 91009BZ  26257.24074814  .00000169  00000-0  16541-2 0  9992
2 21724  73.9836   2.5311 0205950 215.0656 166.7744 12.20620872557497

Śledź SL-8 DEB w czasie rzeczywistym z AllMySat

Download on the App Store